Última Atualização: 12:05 - 21/01/2022

Estação Hora Leitura 15 min 1 h 4 h 24 h 96 h No Mês
1 Vidigal 12:00 0,0 0,0 0,0 0,0 0,0 83,4
2 Urca 12:00 0,0 0,0 0,0 0,0 0,0 132,6
3 Rocinha 12:00 0,0 0,0 0,0 0,0 0,0 113,6
4 Tijuca 12:00 0,0 0,0 0,0 0,0 0,0 186,4
5 Santa Teresa 12:00 0,0 0,0 0,0 0,0 0,0 128,2
6 Copacabana 12:00 0,0 0,0 0,0 0,0 0,0 88,6
7 Grajaú 12:00 0,0 0,0 0,0 0,0 0,0 151,0
8 Ilha do Governador 12:00 0,0 0,0 0,0 0,0 0,0 122,6
9 Penha 12:00 0,0 0,0 0,0 0,0 0,0 115,2
10 Madureira 12:00 0,0 0,0 0,0 0,0 0,0 111,4
11 Irajá 12:00 0,0 0,0 0,0 0,0 0,0 106,4
12 Bangu 12:00 0,0 0,0 0,0 0,0 0,0 69,4
13 Piedade 12:00 0,0 0,0 0,0 0,0 0,0 106,8
14 Jacarepaguá/Tanque 12:00 0,0 0,0 0,0 0,0 0,0 77,6
15 Saúde 12:00 0,0 0,0 0,0 0,0 0,0 121,2
16 Jardim Botânico 12:00 0,0 0,0 0,0 0,0 0,0 140,6
17 Barra/Barrinha 12:00 0,0 0,0 0,0 0,0 0,0 72,2
18 Jacarepaguá/Cidade de Deus 12:00 0,0 0,0 0,0 0,0 0,0 73,0
19 Barra/Riocentro 12:00 0,0 0,0 0,0 0,0 0,0 80,4
20 Guaratiba 12:00 0,0 0,0 0,0 0,0 0,0 62,6
21 Est. Grajaú/Jacarepaguá 12:00 0,0 0,0 0,0 0,0 0,0 110,6
22 Santa Cruz 12:00 0,0 0,0 0,0 0,0 0,0 128,8
23 Grande Méier 12:00 0,0 0,0 0,0 0,0 0,0 144,6
24 Anchieta 12:00 0,0 0,0 0,0 0,0 0,0 112,4
25 Grota Funda 12:00 0,0 0,0 0,0 0,0 0,0 139,2
26 Campo Grande 12:00 0,0 0,0 0,0 0,0 0,0 74,8
27 Sepetiba 12:00 0,0 0,0 0,0 0,0 0,0 92,0
28 Alto da Boa Vista 12:00 0,0 0,0 0,0 0,0 0,0 228,0
29 Av. Brasil/Mendanha 12:00 0,0 0,0 0,0 0,0 0,2 76,4
30 Recreio dos Bandeirantes 12:00 0,0 0,0 0,0 0,0 0,0 74,6
31 Laranjeiras 12:00 0,0 0,0 0,0 0,0 0,0 118,0
32 São Cristóvão 12:00 0,0 0,0 0,0 0,0 0,0 144,6
33 Tijuca/Muda 12:00 0,0 0,0 0,0 0,0 0,0 208,6
Dados Meteorológicos
Estação Hora Direção Vento (graus) Velocidade Vento (Km/h) Temperatura (celsius) Pressão (hPa) Umidade (%)
1 Vidigal 12:00 360,0 0,0 - - -
11 Irajá 12:00 - - - - -
16 Jardim Botânico 12:00 - - - - -
19 Barra/Riocentro 12:00 - - 30,3 - 73,4
20 Guaratiba 12:00 215,3 9,9 - 1009,5 -
22 Santa Cruz 12:00 - - 30,0 - 68,4
28 Alto da Boa Vista 12:00 - - 27,9 - 75,9
32 São Cristóvão 12:00 204,0 3,5 30,8 1009,1 59,6
100 Teste 06:45 168,9 0,0 - - 50,3